Hourly Weather Chadakolob

Today, 13 June, Sunday

Time Temperature Precipitation Wind Pressure Humidity
00:00 +11°C° 0.2 mm 1 mps 617 mmHg 90%
01:00 +12°C° 0.2 mm 1 mps 617 mmHg 90%
02:00 +12°C° 0.2 mm 1 mps 617 mmHg 91%
03:00 +12°C° 0 mm 1 mps 617 mmHg 91%
04:00 +12°C° 0.2 mm 1 mps 617 mmHg 90%
05:00 +13°C° 0.2 mm 1 mps 617 mmHg 89%
06:00 +14°C° 0.2 mm 1 mps 617 mmHg 87%
07:00 +15°C° 0.5 mm 2 mps 617 mmHg 82%
08:00 +16°C° 0.5 mm 2 mps 617 mmHg 77%
09:00 +17°C° 0.5 mm 2 mps 618 mmHg 72%
10:00 +18°C° 0.8 mm 2 mps 618 mmHg 70%
11:00 +18°C° 0.8 mm 3 mps 618 mmHg 68%
12:00 +19°C° 0.8 mm 3 mps 618 mmHg 66%
13:00 +19°C° 0.9 mm 2 mps 618 mmHg 64%
14:00 +19°C° 0.9 mm 2 mps 618 mmHg 63%
15:00 +19°C° 0.9 mm 2 mps 618 mmHg 61%
16:00 +18°C° 0.6 mm 2 mps 617 mmHg 66%
17:00 +17°C° 0.6 mm 2 mps 617 mmHg 71%
18:00 +16°C° 0.6 mm 2 mps 617 mmHg 76%
19:00 +15°C° 0.5 mm 2 mps 617 mmHg 78%
20:00 +14°C° 0.5 mm 1 mps 617 mmHg 81%
21:00 +14°C° 0.5 mm 1 mps 617 mmHg 84%
22:00 +13°C° 0 mm 1 mps 617 mmHg 84%
23:00 +12°C° 0 mm 1 mps 617 mmHg 84%

Tomorrow, 14 June, Monday

Time Temperature Precipitation Wind Pressure Humidity
00:00 +12°C° 0 mm 1 mps 617 mmHg 84%
01:00 +11°C° 0 mm 1 mps 617 mmHg 84%
02:00 +11°C° 0 mm 1 mps 616 mmHg 84%
03:00 +11°C° 0 mm 1 mps 616 mmHg 84%
04:00 +12°C° 0 mm 1 mps 617 mmHg 82%
05:00 +13°C° 0 mm 1 mps 617 mmHg 79%
06:00 +14°C° 0 mm 1 mps 618 mmHg 77%
07:00 +16°C° 0 mm 2 mps 618 mmHg 68%
08:00 +17°C° 0 mm 2 mps 618 mmHg 59%
09:00 +19°C° 0 mm 2 mps 619 mmHg 50%
10:00 +20°C° 0 mm 3 mps 619 mmHg 47%
11:00 +21°C° 0 mm 3 mps 619 mmHg 45%
12:00 +22°C° 0 mm 3 mps 620 mmHg 43%
13:00 +22°C° 0 mm 3 mps 620 mmHg 43%
14:00 +22°C° 0 mm 3 mps 620 mmHg 43%
15:00 +22°C° 0 mm 3 mps 620 mmHg 43%
16:00 +21°C° 0 mm 3 mps 620 mmHg 47%
17:00 +20°C° 0 mm 2 mps 620 mmHg 51%
18:00 +19°C° 0 mm 2 mps 619 mmHg 56%
19:00 +18°C° 0 mm 2 mps 619 mmHg 59%
20:00 +16°C° 0 mm 2 mps 619 mmHg 62%
21:00 +14°C° 0 mm 2 mps 618 mmHg 65%
22:00 +14°C° 0 mm 2 mps 618 mmHg 65%
23:00 +13°C° 0 mm 2 mps 618 mmHg 65%

Day after tomorrow, 15 June, Tuesday

Time Temperature Precipitation Wind Pressure Humidity
00:00 +13°C° 0 mm 2 mps 618 mmHg 65%
01:00 +13°C° 0 mm 2 mps 618 mmHg 66%
02:00 +13°C° 0 mm 2 mps 617 mmHg 68%
03:00 +13°C° 0 mm 2 mps 617 mmHg 69%
04:00 +14°C° 0 mm 2 mps 618 mmHg 70%
05:00 +15°C° 0 mm 2 mps 618 mmHg 70%
06:00 +16°C° 0 mm 2 mps 618 mmHg 71%
07:00 +18°C° 0.1 mm 3 mps 619 mmHg 67%
08:00 +19°C° 0.1 mm 3 mps 619 mmHg 63%
09:00 +20°C° 0.1 mm 3 mps 619 mmHg 60%
10:00 +21°C° 0.5 mm 3 mps 619 mmHg 58%
11:00 +21°C° 0.5 mm 3 mps 620 mmHg 57%
12:00 +21°C° 0.5 mm 3 mps 620 mmHg 55%
13:00 +22°C° 0.1 mm 3 mps 620 mmHg 51%
14:00 +24°C° 0.1 mm 3 mps 620 mmHg 46%
15:00 +24°C° 0.1 mm 3 mps 620 mmHg 41%
16:00 +24°C° 0 mm 2 mps 620 mmHg 45%
17:00 +23°C° 0 mm 2 mps 620 mmHg 49%
18:00 +23°C° 0 mm 1 mps 619 mmHg 53%
19:00 +20°C° 0 mm 1 mps 619 mmHg 58%
20:00 +18°C° 0 mm 1 mps 619 mmHg 64%
21:00 +15°C° 0 mm 1 mps 618 mmHg 69%
22:00 +15°C° 0 mm 1 mps 618 mmHg 67%
23:00 +15°C° 0 mm 1 mps 618 mmHg 65%

16 June, Wednesday

Time Temperature Precipitation Wind Pressure Humidity
00:00 +15°C° 0 mm 1 mps 618 mmHg 63%
01:00 +15°C° 0 mm 2 mps 618 mmHg 64%
02:00 +14°C° 0 mm 2 mps 618 mmHg 65%
03:00 +14°C° 0 mm 2 mps 618 mmHg 66%
04:00 +16°C° 0 mm 2 mps 618 mmHg 65%
05:00 +17°C° 0 mm 2 mps 619 mmHg 63%
06:00 +18°C° 0 mm 2 mps 619 mmHg 62%
07:00 +20°C° 0 mm 2 mps 619 mmHg 58%
08:00 +21°C° 0 mm 2 mps 620 mmHg 54%
09:00 +24°C° 0 mm 3 mps 620 mmHg 51%
10:00 +25°C° 0 mm 3 mps 620 mmHg 48%
11:00 +25°C° 0 mm 3 mps 620 mmHg 45%
12:00 +26°C° 0 mm 3 mps 620 mmHg 43%
13:00 +26°C° 0 mm 3 mps 620 mmHg 42%
14:00 +26°C° 0 mm 3 mps 620 mmHg 41%
15:00 +26°C° 0 mm 3 mps 620 mmHg 40%
16:00 +26°C° 0 mm 2 mps 620 mmHg 46%
17:00 +25°C° 0 mm 2 mps 620 mmHg 51%
18:00 +24°C° 0 mm 2 mps 620 mmHg 57%
19:00 +21°C° 0 mm 2 mps 620 mmHg 63%
20:00 +19°C° 0 mm 2 mps 620 mmHg 69%
21:00 +16°C° 0 mm 2 mps 619 mmHg 75%
22:00 +16°C° 0 mm 2 mps 619 mmHg 74%
23:00 +16°C° 0 mm 2 mps 619 mmHg 72%

17 June, Thursday

Time Temperature Precipitation Wind Pressure Humidity
00:00 +16°C° 0 mm 2 mps 619 mmHg 70%
01:00 +15°C° 0 mm 2 mps 618 mmHg 68%
02:00 +15°C° 0 mm 2 mps 618 mmHg 67%
03:00 +15°C° 0 mm 2 mps 618 mmHg 66%
04:00 +16°C° 0 mm 2 mps 618 mmHg 65%
05:00 +18°C° 0 mm 2 mps 619 mmHg 64%
06:00 +19°C° 0 mm 2 mps 619 mmHg 63%
07:00 +20°C° 0 mm 2 mps 620 mmHg 56%
08:00 +23°C° 0 mm 2 mps 620 mmHg 48%
09:00 +25°C° 0 mm 3 mps 620 mmHg 40%
10:00 +25°C° 0 mm 3 mps 620 mmHg 39%
11:00 +26°C° 0 mm 3 mps 621 mmHg 39%
12:00 +26°C° 0 mm 4 mps 621 mmHg 38%
13:00 +26°C° 0 mm 4 mps 621 mmHg 37%
14:00 +26°C° 0 mm 3 mps 621 mmHg 36%
15:00 +26°C° 0 mm 3 mps 621 mmHg 36%
16:00 +25°C° 0 mm 3 mps 621 mmHg 39%
17:00 +24°C° 0 mm 2 mps 621 mmHg 42%
18:00 +24°C° 0 mm 2 mps 621 mmHg 44%
19:00 +21°C° 0 mm 2 mps 620 mmHg 46%
20:00 +18°C° 0 mm 2 mps 620 mmHg 49%
21:00 +16°C° 0 mm 2 mps 619 mmHg 51%
22:00 +16°C° 0 mm 2 mps 619 mmHg 52%
23:00 +15°C° 0 mm 2 mps 619 mmHg 54%

18 June, Friday

Time Temperature Precipitation Wind Pressure Humidity
00:00 +15°C° 0 mm 2 mps 619 mmHg 55%
01:00 +15°C° 0.1 mm 2 mps 619 mmHg 58%
02:00 +14°C° 0.1 mm 2 mps 619 mmHg 60%
03:00 +14°C° 0.1 mm 2 mps 619 mmHg 63%
04:00 +15°C° 0 mm 2 mps 619 mmHg 63%
05:00 +16°C° 0 mm 1 mps 620 mmHg 64%
06:00 +18°C° 0 mm 1 mps 620 mmHg 64%
07:00 +19°C° 0 mm 2 mps 620 mmHg 56%
08:00 +21°C° 0 mm 2 mps 621 mmHg 48%
09:00 +23°C° 0 mm 2 mps 621 mmHg 40%
10:00 +24°C° 0 mm 2 mps 621 mmHg 39%
11:00 +24°C° 0 mm 3 mps 622 mmHg 38%
12:00 +25°C° 0 mm 3 mps 622 mmHg 37%
13:00 +25°C° 0.1 mm 3 mps 622 mmHg 38%
14:00 +25°C° 0.1 mm 3 mps 622 mmHg 38%
15:00 +25°C° 0.1 mm 3 mps 622 mmHg 39%
16:00 +24°C° 0.1 mm 2 mps 622 mmHg 45%
17:00 +23°C° 0.1 mm 2 mps 622 mmHg 50%
18:00 +22°C° 0.1 mm 1 mps 621 mmHg 56%
19:00 +20°C° 0 mm 1 mps 621 mmHg 60%
20:00 +18°C° 0 mm 1 mps 621 mmHg 65%
21:00 +15°C° 0 mm 1 mps 621 mmHg 70%
22:00 +15°C° 0 mm 1 mps 620 mmHg 68%
23:00 +15°C° 0 mm 1 mps 620 mmHg 66%
Show more

We Need Your Consent

Meteoprog and our Service Providers may store and access personal data such as cookies, device identifiers or other similar technologies on your device and process such data to personalise content and ads, as well as provide social media features and to analyse the traffic.

  • Store and/or access information on your device

    Cookies, device identifiers or other information can be stored or accessed on your device for the purposes indicated above.

  • Personalised ads and content, ad and content measurement, audience insights, and products development

    Ads and content can be personalised based on a profile. More data can be added to better personalise ads and content. Ad and content performance can be measured. Insights about the audience who saw the ads and content can be derived. Such data can be used to develop or improve user’s experience, systems and software.

By clicking ‘I Agree’ you will allow the use of indicated cookies, device identifiers, web beacons or other similar technologies. Your settings can be changed in the browser on your device.

For certain purposes, legitimate interests may be relied on, rather than consent. You can read more about this in our Privacy and Cookie Policy.